Regional Weather Roundup
Issued by NWS

Home | Current Version | Previous Version | Text Only | Print | Product List | Glossary Off
Versions: 1 2 3 4 5 6 7 8 9 10 11 12 13 14 15 16 17 18 19 20 21 22 23 24 25 26 27 28 29 30 31 32 33 34 35 36 37 38 39 40 41 42 43 44 45 46 47 48 49 50

000
ASUS43 KLOT 210258
RWRIL

ILLINOIS REGIONAL WEATHER ROUNDUP
NATIONAL WEATHER SERVICE CHICAGO/ROMEOVILLE IL
1000 PM CDT SUN APR 20 2014

NOTE: "FAIR" INDICATES FEW OR NO CLOUDS BELOW 12,000 FEET WITH NO
SIGNIFICANT WEATHER AND/OR OBSTRUCTIONS TO VISIBILITY.

* THESE STATIONS ARE NOT UNDER NWS QUALITY CONTROL. THEY ALSO MAY NOT
  REPORT WEATHER SUCH AS PRECIPITATION OR FOG.

ILZ001-002-007-009-015-016-024-210400-
NORTHWEST ILLINOIS

CITY           SKY/WX    TMP DP  RH WIND       PRES   REMARKS
MOLINE         CLOUDY    69  45  41 S8        29.98S
$$

ILZ003-004-008-010-011-017-018-210400-
NORTH CENTRAL ILLINOIS

CITY           SKY/WX    TMP DP  RH WIND       PRES   REMARKS
ROCKFORD       NOT AVBL
$$

ILZ005-006-012>014-019>023-210400-
NORTHEAST ILLINOIS

CITY           SKY/WX    TMP DP  RH WIND       PRES   REMARKS
CHICAGO-OHARE  PTCLDY    64  40  41 S12       30.03F
CHICAGO-MIDWAY PTCLDY    70  39  32 SE9       30.04F
AURORA         PTCLDY    59  42  53 SE7       30.03F
WAUKEGAN       CLEAR     58  39  49 S6        30.01F
DUPAGE AIRPORT PTCLDY    61  41  47 S6        30.02F
WHEELING       PTCLDY    61  42  49 S7        30.03F
NORTHERLY ISL    N/A     52  44  74 SE5         N/A
$$

LMZ740>746-210400-
SOUTHERN LAKE MICHIGAN

STATION/POSITION SKY/WX   TEMP    WIND        PRES    VSBY  WAVE
                          AIR SEA DIR/SP/G                  HT/PER
                          (F)     (DEG/KT/KT) (MB)    (MI)  (FT/S)
WAUKEGAN HARBOR            50     190/ 13/ 14 1017.9S
HARRISON CRIB              53     160/ 10/ 11   N/A
BURNHAM HARBOR             52     160/  3       N/A
CALUMET HARBOR             69     150/  8/ 11 1018.4F
MICHIGAN CITY              69     130/  6/  9   N/A
$$

ILZ025>027-034>036-040-047-049-050-058-095>099-210400-
WEST-CENTRAL ILLINOIS

CITY           SKY/WX    TMP DP  RH WIND       PRES   REMARKS
$$

ILZ028>032-037-038-041>044-048-051>054-059>061-210400-
CENTRAL ILLINOIS

CITY           SKY/WX    TMP DP  RH WIND       PRES   REMARKS
PEORIA         NOT AVBL
SPRINGFIELD    PTCLDY    68  42  38 S10       30.05F
TAYLORVILLE    NOT AVBL
$$

ILZ033-039-045-046-055>057-062-063-210400-
EAST-CENTRAL ILLINOIS

CITY           SKY/WX    TMP DP  RH WIND       PRES   REMARKS
CHAMPAIGN      MOCLDY    60  43  53 SE8       30.08F
$$

ILZ079-100>102-210400-
SOUTHWEST ILLINOIS

CITY           SKY/WX    TMP DP  RH WIND       PRES   REMARKS
ALTON          CLEAR     63  45  51 SE9       30.06R
CAHOKIA*       MOCLDY    68  46  45 SE8       30.06R
$$

ILZ064>066-069>071-074>076-080>082-084>086-088>090-092>094-210400-
SOUTH-CENTRAL ILLINOIS

CITY           SKY/WX    TMP DP  RH WIND       PRES   REMARKS
CARBONDALE     PTCLDY    63  46  54 SE5       30.09R
$$

ILZ067-068-072-073-078-083-087-091-210400-
SOUTHEAST ILLINOIS

CITY           SKY/WX    TMP DP  RH WIND       PRES   REMARKS
$$

ABBREVIATIONS USED IN REMARKS
   TC - TEMPERATURE IN CELSIUS
  WCI - WIND CHILL INDEX
   HX - HEAT INDEX
  VSB - VISIBILITY
$$




USA.gov is the U.S. government's official web portal to all federal, state and local government web resources and services.